User: anonymous   Login
Location: Palmerston North
(40.3500°S, 175.6170°E)
Time: 14:18:34
(UTC+13:00)
Language:

SL-08 R/B - Orbit

View from above orbital plane
View from above orbital plane
View from above satellite
View from above satellite

Ground track
Ground track

The orbit data is extracted from the following two-line orbital elements,

1 28381U 04028B   19082.89793777 -.00000015  00000-0 -29965-4 0  9996
2 28381  82.9590 215.7372 0032032  20.1944  95.3914 13.78243053737761
Epoch (UTC): 23 March 2019 21:33:01
Eccentricity: 0.0032032
inclination: 82.9590°
perigee height: 946 km
apogee height: 993 km
right ascension of ascending node: 215.7372°
argument of perigee: 20.1944°
revolutions per day: 13.78243053
mean anomaly at epoch: 95.3914°
orbit number at epoch: 73776

The dashed part of the orbit path shows where the satellite is in the earth's shadow,  

DLR